Regional Weather Roundup
Issued by NWS Charleston, SC

Current Version | Previous Version | Graphics & Text | Print | Product List | Glossary On
Versions: 1 2 3 4 5 6 7 8 9 10 11 12 13 14 15 16 17 18 19 20 21 22 23 24 25 26 27 28 29 30 31 32 33 34 35 36 37 38 39 40 41 42 43 44 45 46 47 48 49 50
000 ASUS42 KCHS 291428 RWRCHS REGIONAL WEATHER ROUNDUP NATIONAL WEATHER SERVICE CHARLESTON SC 1000 AM EDT SUN MAY 29 2016 NOTE: "FAIR" INDICATES FEW OR NO CLOUDS BELOW 12,000 FEET WITH NO SIGNIFICANT WEATHER AND/OR OBSTRUCTIONS TO VISIBILITY. NOT ALL STATIONS ARE QUALITY CONTROLLED. USE DATA WITH CAUTION... ESPECIALLY DEWPOINT OBSERVATIONS. SCZ027-030-031-034>040-042>050-291500- ...SOUTHEAST SOUTH CAROLINA... CITY SKY/WX TMP DP RH WIND PRES REMARKS N CHARLESTON LGT RAIN 73 71 93 SW16G24 29.84R WATERFRONT PRK N/A 73 72 96 SW10 29.84R MOUNT PLEASANT PTSUNNY 75 73 94 S15G21 29.89R FOG JOHNS ISLAND CLOUDY 73 73 100 SW10 29.90R FOG PINOPOLIS NOT AVBL MONCKS CORNER CLOUDY 72 70 94 E22G32 29.82F SUMMERVILLE TSTM 72 72 100 W13 29.84F BEAUFORT MCAS CLOUDY 70 68 93 NW15 29.95R BEAUFORT ARPT HVY RAIN 68 68 100 W10 29.94S HILTON HEAD IS DRIZZLE 70 68 94 W12 29.96 WALTERBORO RAIN 72 72 100 NW14G21 29.93F ALLENDALE LGT RAIN 68 66 94 NW10G17 30.00S ...SOUTHERN MIDLANDS AND PEE DEE... CITY SKY/WX TMP DP RH WIND PRES REMARKS GEORGETOWN RAIN 75 72 88 SE8 29.95S KINGSTREE RAIN 73 72 94 NE8 29.96S ORANGEBURG LGT RAIN 69 67 93 N15G23 29.98R FOG BARNWELL CLOUDY 70 70 100 NW13G24 30.03R AIKEN CLOUDY 64 61 88 NW16G26 30.11S MANNING TSTM 70 70 100 N13G21 29.93F COLUMBIA LGT RAIN 70 67 90 N12G21 30.04R FOG SUMTER CLOUDY 70 68 94 N14 29.98S FLORENCE CLOUDY 76 72 87 NE13 30.01F MYRTLE BEACH PTSUNNY 81 70 69 E12 30.00S N MYRTLE BEACH PTSUNNY 78 74 87 E10 29.99S $$ GAZ063-065-086>088-099>101-113>116-118-119-134>141-150-291500- ...SOUTHEAST GEORGIA... CITY SKY/WX TMP DP RH WIND PRES REMARKS SAVANNAH ARPT HVY RAIN 69 65 86 NW29G39 30.00R FOG HUNTER AAF HVY RAIN 68 68 100 NW12G18 29.98R FOG FORT STEWART LGT RAIN 72 66 82 NW14G23 30.03R STATESBORO HVY RAIN 68 67 99 NW13 30.06R SYLVANIA HVY RAIN 69 67 92 N22G29 30.04S CLAXTON RAIN 68 67 97 W9 30.07R ...CSRA...CENTRAL AND FAR SOUTHEAST GEORGIA... CITY SKY/WX TMP DP RH WIND PRES REMARKS THOMSON CLOUDY 69 69 100 N8 30.16F AUGUSTA-BUSH LGT RAIN 65 61 87 N21G32 30.08R FOG AUGUSTA-DANIEL RAIN 65 61 87 N13G28 30.10S FOG SWAINSBORO CLOUDY 70 64 83 N8 30.11R VIDALIA CLOUDY 70 63 78 NW7 30.10R EASTMAN FAIR 77 65 65 NE7 30.14S HAZLEHURST FAIR 77 63 62 N8 30.10S ALMA MOSUNNY 77 65 66 NW8 30.09S WAYCROSS SUNNY 79 66 64 N10 30.09S JESUP CLOUDY 72 63 73 NE15 30.08R BAXLEY FAIR 75 64 69 N10 30.09S BRUNSWICK PTSUNNY 81 68 65 NW7 30.07R SAINT SIMONS SUNNY 75 66 73 W12G18 30.05S $$ SCZ027-028-034-036>038-045-046-048>050-GAZ119-141-291500- ...LAKE AND SUPPLEMENTAL COASTAL OBSERVATIONS... STATION/POSITION TIME TEMP WIND PRES WAVE SWELL AIR SEA DIR/SP/G HT/PER HT/PER/DIR (UTC) (F) (DEG/KT/KT) (MB) (FT/S) (FT/S/D) WINYAH BAY 1300 77 110/ 13 1013.0 LAKE MURRAY 1300 68 340/ 4/ 10 1017.6R ACE BASIN NERRS 1300 72 280/ 2 1013.0S FORT PULASKI 1400 70 75 280/ 21/ 25 1015.5R SAPELO ISLAND 1400 77 300/ 15 1017.0S $$ ANZ835-935-AMZ111-154-330-350-352-354-370-450-454-472-291500- ...C-MAN AND BUOY OBSERVATIONS... STATION/POSITION TIME TEMP WIND PRES WAVE SWELL AIR SEA DIR/SP/G HT/PER HT/PER/DIR (UTC) (F) (DEG/KT/KT) (MB) (FT/S) (FT/S/D) BUOY 41004 1350 75 78 200/ 19/ 23 1013.1R 6/ 8 3/ 8 BUOY 41008 1350 73 75 280/ 21/ 27 1015.8F 4/ 4 2/ 90/ 8 FOLLY BEACH CMAN 1400 75 220/ 15/ 18 1012.5R CAPERS NEARSHORE 1408 74 76 190/ 17/ 21 1012.4R FRIPP NEARSHORE 1408 70 76 290/ 19/ 25 1013.0F STATION/POSITION TIME TEMP WIND PRES WAVE SWELL AIR SEA DIR/SP/G HT/PER HT/PER/DIR (UTC) (F) (DEG/KT/KT) (MB) (FT/S) (FT/S/D) 5E ST. MARYS GA 1401 78 N/A 3/ 8 FRYING PAN BUOY 1400 79 78 150/ 19/ 23 1016.0S BUOY 41025 1350 79 76 150/ 17/ 21 1019.2F 6/ 6 2/260/13 CAPE LOOKOUT NC 1400 75 130/ 9/ 10 1018.2F BUOY 41002 1350 76 75 120/ 12/ 16 1019.4R 4/ 7 3/120/ 7 BUOY 41010 1320 79 79 240/ 8/ 8 1018.3R ST AUGUSTINE FL 1400 76 78 320/ 6/ 7 1019.3R $$

USA.gov is the U.S. government's official web portal to all federal, state and local government web resources and services.